カタログに戻る

SL-8 R/B

運用中LEO
NORAD 10293·ROCKET BODY·🇷🇺 Russia

打ち上げ Aug 24, 1977 から Plesetsk Cosmodrome

Loading…

次のパス (今後24時間)

TLE

最新Source: Space-Track

元期: Sep 14, 2026, 07:30 UTC

1 10293U 77079J   26257.31285669  .00000028  00000-0  37214-3 0  9997
2 10293  74.0255 202.9319 0134800 133.5303  32.6618 12.25240157971372

AllMySatでSL-8 R/Bをリアルタイム追跡

Download on the App Store